GW1158 Weather Reports


time (UTC)temp
C
wind
direction
speed
KPH
gust
KPH
rain 1hr
cm
rain 24hr
cm
rain mn
cm
humidity
%
barometer
mb
20260505125032 2 264 4.8 12.9 0.00 0.08 0.08 89 1012.2
20260505124555 3 257 1.6 8.0 0.00 0.08 0.08 91 1012.0
20260505124032 3 257 1.6 3.2 0.00 0.08 0.08 91 1011.9
20260505123529 3 0 0.0 0.0 0.00 0.08 0.08 92 1011.9
20260505123049 3 0 0.0 0.0 0.00 0.08 0.08 92 1011.9
20260505122547 3 0 0.0 1.6 0.00 0.08 0.08 91 1011.9
20260505122033 3 0 0.0 3.2 0.00 0.08 0.08 91 1012.0
20260505121543 3 38 0.0 3.2 0.00 0.08 0.08 90 1011.9
20260505121033 3 0 0.0 1.6 0.00 0.08 0.08 91 1012.0
20260505120534 3 243 0.0 3.2 0.00 0.08 0.08 91 1012.0
20260505120059 3 234 0.0 3.2 0.00 0.08 0.08 91 1011.9
20260505115533 3 250 0.0 1.6 0.00 0.08 0.08 91 1012.0
20260505115036 3 0 0.0 1.6 0.00 0.08 0.08 91 1012.0
20260505114545 3 0 0.0 1.6 0.00 0.08 0.08 91 1011.9
20260505114034 3 0 0.0 1.6 0.00 0.08 0.08 91 1011.9
20260505113535 3 233 0.0 0.0 0.00 0.08 0.08 91 1011.9
20260505113101 3 0 0.0 0.0 0.00 0.08 0.08 91 1011.9
20260505112533 3 0 0.0 1.6 0.00 0.08 0.08 92 1011.9
20260505112033 3 0 0.0 1.6 0.00 0.08 0.08 92 1011.9
20260505111541 3 230 0.0 0.0 0.00 0.08 0.08 92 1012.0
20260505111032 3 0 0.0 0.0 0.00 0.08 0.08 91 1011.9
20260505110532 3 0 0.0 0.0 0.00 0.08 0.08 92 1012.0
20260505102033 3 0 0.0 1.6 0.00 0.08 0.08 92 1012.1
20260505101543 3 0 0.0 0.0 0.00 0.08 0.08 92 1012.1
20260505101036 3 0 0.0 0.0 0.00 0.08 0.08 91 1012.2
20260505100536 3 0 0.0 0.0 0.00 0.08 0.08 91 1012.1
20260505100045 3 0 0.0 1.6 0.00 0.08 0.08 91 1012.1
20260505095533 3 0 0.0 3.2 0.00 0.08 0.08 90 1012.1
20260505095033 3 0 0.0 3.2 0.00 0.08 0.08 89 1012.0
20260505094545 3 212 1.6 3.2 0.00 0.08 0.08 89 1012.2
20260505094034 3 241 0.0 1.6 0.00 0.08 0.08 89 1012.2
20260505093532 3 241 0.0 1.6 0.00 0.08 0.08 89 1012.2
20260505093050 3 241 1.6 1.6 0.03 0.08 0.08 88 1012.2
20260505092534 3 221 1.6 3.2 0.03 0.08 0.08 89 1012.3
20260505092034 3 242 1.6 3.2 0.03 0.08 0.08 90 1012.3
20260505091543 3 234 1.6 1.6 0.03 0.08 0.08 90 1012.3
20260505091029 3 244 0.0 1.6 0.03 0.08 0.08 91 1012.4
20260505090532 3 0 0.0 1.6 0.03 0.08 0.08 90 1012.4
20260505090045 3 244 0.0 1.6 0.05 0.08 0.08 90 1012.3
20260505085532 3 242 0.0 1.6 0.05 0.08 0.08 90 1012.4
20260505085036 3 0 0.0 0.0 0.05 0.08 0.08 89 1012.5
20260505084547 3 0 0.0 1.6 0.05 0.08 0.08 88 1012.6
20260505084034 3 0 0.0 1.6 0.05 0.08 0.08 88 1012.6
20260505083532 3 19 0.0 1.6 0.05 0.08 0.08 89 1012.8
20260505083051 3 0 0.0 6.4 0.03 0.05 0.05 88 1012.9
20260505082533 3 0 1.6 6.4 0.03 0.05 0.05 87 1012.9
20260505082033 3 14 1.6 6.4 0.03 0.05 0.05 87 1012.9
20260505081551 3 36 1.6 4.8 0.03 0.05 0.05 87 1013.0
20260505081033 3 72 0.0 4.8 0.03 0.05 0.05 87 1013.2
20260505080530 3 0 1.6 4.8 0.03 0.05 0.05 86 1013.2
20260505080047 3 70 1.6 3.2 0.00 0.03 0.03 87 1013.3
20260505075532 3 67 1.6 3.2 0.03 0.03 0.03 87 1013.3
20260505075033 3 40 0.0 3.2 0.03 0.03 0.03 88 1013.4
20260505074545 3 77 0.0 1.6 0.03 0.03 0.03 88 1013.5
20260505074034 3 0 0.0 0.0 0.03 0.03 0.03 87 1013.4
20260505073532 3 0 0.0 0.0 0.03 0.03 0.03 87 1013.5
20260505073043 3 0 0.0 1.6 0.03 0.03 0.03 84 1013.5
20260505072536 3 0 0.0 1.6 0.03 0.03 0.03 84 1013.6
20260505072034 4 99 0.0 6.4 0.03 0.03 0.03 83 1013.6
20260505071541 4 102 0.0 9.7 0.03 0.03 0.03 82 1013.5
20260505071034 4 210 3.2 9.7 0.03 0.03 0.03 79 1013.5
20260505070534 5 113 0.0 14.5 0.03 0.03 0.03 80 1013.6
20260505070045 5 215 4.8 14.5 0.03 0.03 0.03 73 1013.5
20260505065535 6 127 1.6 8.0 0.00 0.00 0.00 72 1013.5
20260505065032 6 11 3.2 9.7 0.00 0.00 0.00 64 1013.3
20260505064540 6 264 1.6 12.9 0.00 0.00 0.00 57 1013.1
20260505064032 6 329 3.2 12.9 0.00 0.00 0.00 59 1013.1
20260505063533 7 39 0.0 4.8 0.00 0.00 0.00 56 1012.9
20260505063045 6 0 1.6 4.8 0.00 0.00 0.00 55 1012.9
20260505062532 6 238 0.0 4.8 0.00 0.00 0.00 57 1012.7
20260505062034 7 270 1.6 4.8 0.00 0.00 0.00 56 1012.6
20260505061542 7 239 0.0 1.6 0.00 0.00 0.00 56 1012.5
20260505061033 7 240 0.0 0.0 0.00 0.00 0.00 57 1012.4
20260505060533 7 0 0.0 1.6 0.00 0.00 0.00 57 1012.3
20260505060044 7 0 0.0 3.2 0.00 0.00 0.00 58 1012.2
20260505055533 7 240 0.0 3.2 0.00 0.00 0.00 58 1012.3
20260505055033 7 237 0.0 0.0 0.00 0.00 0.00 58 1012.2
20260505054549 7 0 0.0 4.8 0.00 0.00 0.00 57 1012.2
20260505054036 7 0 0.0 6.4 0.00 0.00 0.00 57 1012.1
20260505053533 7 0 1.6 6.4 0.00 0.00 0.00 55 1012.1
20260505053110 7 0 0.0 1.6 0.00 0.00 0.00 54 1012.0
20260505052532 7 0 0.0 1.6 0.00 0.00 0.00 54 1012.1
20260505052036 7 0 0.0 0.0 0.00 0.00 0.00 52 1012.1
20260505051543 8 0 0.0 1.6 0.00 0.00 0.00 51 1012.1
20260505051032 8 0 0.0 3.2 0.00 0.00 0.00 50 1011.9
20260505050532 8 0 0.0 8.0 0.00 0.00 0.00 49 1011.8
20260505041545 8 34 4.8 12.9 0.00 0.00 0.00 50 1011.3
20260505041035 8 155 4.8 17.7 0.00 0.00 0.00 50 1011.2
20260505040533 8 56 8.0 19.3 0.00 0.00 0.00 49 1011.2
20260505040049 8 108 6.4 19.3 0.00 0.00 0.00 49 1011.2
20260505035535 8 44 6.4 19.3 0.00 0.00 0.00 50 1011.1
20260505035032 8 75 8.0 20.9 0.00 0.00 0.00 50 1011.0
20260505034601 8 93 4.8 20.9 0.00 0.00 0.00 50 1011.0
20260505034036 8 58 6.4 16.1 0.00 0.00 0.00 50 1011.0
20260505033533 8 95 4.8 22.5 0.00 0.00 0.00 50 1010.9
20260505033050 8 22 4.8 22.5 0.00 0.00 0.00 50 1010.9
20260505032534 8 34 4.8 14.5 0.00 0.00 0.00 50 1010.9
20260505032033 9 21 4.8 17.7 0.00 0.00 0.00 50 1010.9
20260505031542 9 51 8.0 17.7 0.00 0.00 0.00 50 1010.9
20260505031037 9 30 11.3 19.3 0.00 0.00 0.00 49 1010.9
20260505030533 10 32 8.0 19.3 0.00 0.00 0.00 48 1010.9
20260505030043 10 25 3.2 14.5 0.00 0.00 0.00 46 1010.8
20260505025534 10 19 4.8 25.7 0.00 0.00 0.00 45 1010.7
20260505025033 10 84 8.0 25.7 0.00 0.00 0.00 43 1010.6
20260505024543 11 62 9.7 19.3 0.00 0.00 0.00 39 1010.4
20260505024033 11 14 9.7 19.3 0.00 0.00 0.00 38 1010.4
20260505023534 11 22 8.0 19.3 0.00 0.00 0.00 38 1010.4
20260505023047 11 32 4.8 12.9 0.00 0.00 0.00 38 1010.3
20260505022536 11 16 4.8 11.3 0.00 0.00 0.00 37 1010.3
20260505022033 11 18 4.8 14.5 0.00 0.00 0.00 38 1010.3
20260505021546 11 21 4.8 22.5 0.00 0.00 0.00 36 1010.2
20260505021034 12 62 8.0 22.5 0.00 0.00 0.00 36 1010.2
20260505020532 12 34 12.9 20.9 0.00 0.00 0.00 35 1010.2
20260505020047 12 18 4.8 11.3 0.00 0.00 0.00 35 1010.0
20260505015533 12 22 4.8 11.3 0.00 0.00 0.00 34 1009.9
20260505015033 13 25 6.4 12.9 0.00 0.00 0.00 33 1010.0
20260505014543 13 58 4.8 12.9 0.00 0.00 0.00 33 1009.8
20260505014034 13 32 6.4 12.9 0.00 0.00 0.00 32 1009.8
20260505013536 13 27 6.4 11.3 0.00 0.00 0.00 32 1009.8
20260505013045 13 25 6.4 16.1 0.00 0.00 0.00 31 1009.8
20260505012533 13 16 8.0 16.1 0.00 0.00 0.00 31 1009.9
20260505012035 13 18 6.4 14.5 0.00 0.00 0.00 32 1009.9
20260505011604 13 46 4.8 14.5 0.00 0.00 0.00 31 1009.8
20260505011036 13 40 6.4 14.5 0.00 0.00 0.00 31 1009.9
20260505010534 14 39 8.0 12.9 0.00 0.00 0.00 30 1010.0
20260505010048 14 48 8.0 12.9 0.00 0.00 0.00 30 1010.1
20260505005533 14 28 4.8 11.3 0.00 0.00 0.00 30 1010.0
20260505005035 14 1 9.7 11.3 0.00 0.00 0.00 30 1010.1
20260505004540 14 29 4.8 24.1 0.00 0.00 0.00 29 1010.0
20260505004033 14 27 8.0 24.1 0.00 0.00 0.00 29 1010.0
20260505003533 14 28 12.9 24.1 0.00 0.00 0.00 29 1010.2
20260505003044 14 6 9.7 22.5 0.00 0.00 0.00 32 1010.2
20260505002532 13 241 4.8 14.5 0.00 0.00 0.00 32 1010.0
20260505002032 13 324 8.0 14.5 0.00 0.00 0.00 33 1010.3
20260505001547 13 17 4.8 17.7 0.00 0.00 0.00 32 1010.3
20260505001031 13 337 6.4 17.7 0.00 0.00 0.00 32 1010.3
20260505000533 13 82 11.3 22.5 0.00 0.00 0.00 33 1010.4
20260505000100 13 30 11.3 22.5 0.00 0.00 0.00 37 1010.5
20260504235534 13 29 12.9 24.1 0.00 0.00 0.00 38 1010.7
20260504235033 13 52 9.7 27.4 0.00 0.00 0.00 38 1010.8
20260504234543 13 2 12.9 30.6 0.00 0.00 0.00 36 1010.7
20260504234034 14 12 12.9 30.6 0.00 0.00 0.00 35 1011.0
20260504233534 15 36 11.3 22.5 0.00 0.00 0.00 33 1010.6
20260504233057 15 252 6.4 22.5 0.00 0.00 0.00 30 1010.1
20260504232534 15 129 6.4 22.5 0.00 0.00 0.00 30 1010.1
20260504232034 15 280 6.4 25.7 0.00 0.00 0.00 30 1010.1
20260504231546 16 296 8.0 25.7 0.00 0.00 0.00 30 1010.0
20260504231033 16 288 4.8 25.7 0.00 0.00 0.00 29 1009.9
20260504230533 16 282 4.8 20.9 0.00 0.00 0.00 29 1009.8
20260504230044 15 216 4.8 20.9 0.00 0.00 0.00 29 1009.7
20260504225532 15 263 4.8 19.3 0.00 0.00 0.00 28 1009.8
20260504225033 16 267 4.8 17.7 0.00 0.00 0.00 28 1009.8
20260504224548 15 338 4.8 17.7 0.00 0.00 0.00 29 1010.0
20260504224033 15 279 4.8 17.7 0.00 0.00 0.00 30 1010.0
20260504223533 14 297 4.8 16.1 0.00 0.00 0.00 31 1009.9
20260504223048 13 221 3.2 9.7 0.00 0.00 0.00 31 1010.0
20260504222535 13 237 1.6 24.1 0.00 0.00 0.00 30 1010.2
20260504222033 13 229 9.7 24.1 0.00 0.00 0.00 30 1010.3
20260504221548 14 292 8.0 24.1 0.00 0.00 0.00 28 1010.4
20260504221034 15 155 3.2 17.7 0.00 0.00 0.00 26 1009.8
20260504220533 15 267 1.6 19.3 0.00 0.00 0.00 26 1009.9
20260504220049 15 131 1.6 19.3 0.00 0.00 0.00 26 1009.9
20260504215534 15 141 9.7 19.3 0.00 0.00 0.00 25 1010.0
20260504215034 15 257 3.2 12.9 0.00 0.00 0.00 25 1010.3
20260504214547 16 335 3.2 11.3 0.00 0.00 0.00 25 1010.2
20260504214033 16 39 1.6 16.1 0.00 0.00 0.00 24 1010.2
20260504213533 16 358 4.8 16.1 0.00 0.00 0.00 23 1010.1
20260504213051 17 326 3.2 16.1 0.00 0.00 0.00 21 1010.3
20260504212533 17 356 4.8 16.1 0.00 0.00 0.00 21 1010.6
20260504212033 17 289 3.2 17.7 0.00 0.00 0.00 23 1010.5
20260504211546 17 243 4.8 17.7 0.00 0.00 0.00 23 1010.6
20260504211034 16 324 4.8 14.5 0.00 0.00 0.00 25 1010.7
20260504210534 16 311 3.2 17.7 0.00 0.00 0.00 25 1010.8
20260504210059 15 326 6.4 17.7 0.00 0.00 0.00 26 1010.8
20260504205534 15 332 4.8 14.5 0.00 0.00 0.00 26 1011.1
20260504205103 15 20 3.2 22.5 0.00 0.00 0.00 28 1011.4
20260504204543 14 260 4.8 30.6 0.00 0.00 0.00 26 1011.5
20260504204034 14 335 3.2 30.6 0.00 0.00 0.00 28 1011.5
20260504203535 14 288 8.0 30.6 0.00 0.00 0.00 28 1011.9
20260504203048 15 212 6.4 19.3 0.00 0.00 0.00 27 1011.6
20260504202535 15 287 1.6 14.5 0.00 0.00 0.00 27 1011.5
20260504202036 15 239 3.2 14.5 0.00 0.00 0.00 27 1011.4
20260504201545 14 188 3.2 11.3 0.00 0.00 0.00 30 1011.4
20260504201033 14 231 4.8 11.3 0.00 0.00 0.00 28 1011.4
20260504200533 15 239 1.6 8.0 0.00 0.00 0.00 29 1011.4
20260504200049 15 335 3.2 19.3 0.00 0.00 0.00 29 1011.6
20260504195532 15 252 4.8 19.3 0.00 0.00 0.00 29 1011.5
20260504195035 15 203 3.2 16.1 0.00 0.00 0.00 29 1011.6
20260504194548 15 189 1.6 16.1 0.00 0.00 0.00 28 1011.6
20260504194033 15 314 6.4 19.3 0.00 0.00 0.00 30 1011.7
20260504193535 14 351 3.2 19.3 0.00 0.00 0.00 29 1011.7
20260504193050 14 225 4.8 20.9 0.00 0.00 0.00 30 1011.7
20260504192535 15 265 8.0 24.1 0.00 0.00 0.00 28 1011.8
20260504192033 15 243 8.0 24.1 0.00 0.00 0.00 28 1011.9
20260504191607 15 263 3.2 14.5 0.00 0.00 0.00 29 1011.7
20260504191034 15 295 3.2 14.5 0.00 0.00 0.00 27 1011.7
20260504190533 15 311 4.8 17.7 0.00 0.00 0.00 28 1011.7
20260504190049 15 0 8.0 22.5 0.00 0.00 0.00 26 1011.9
20260504185534 16 121 9.7 22.5 0.00 0.00 0.00 25 1012.0
20260504185034 17 274 6.4 19.3 0.00 0.00 0.00 27 1011.9
20260504184543 16 38 6.4 19.3 0.00 0.00 0.00 28 1011.8
20260504184034 15 307 4.8 22.5 0.00 0.00 0.00 29 1011.9
20260504183536 14 258 4.8 22.5 0.00 0.00 0.00 29 1012.0
20260504183045 13 342 9.7 22.5 0.00 0.00 0.00 31 1012.2
20260504182533 13 32 3.2 16.1 0.00 0.00 0.00 32 1012.1
20260504182033 14 314 3.2 17.7 0.00 0.00 0.00 32 1012.1
20260504181546 15 302 6.4 25.7 0.00 0.00 0.00 27 1012.0
20260504181034 15 319 6.4 25.7 0.00 0.00 0.00 26 1011.9
20260504180534 15 300 6.4 14.5 0.00 0.00 0.00 27 1011.9
20260504180051 16 316 3.2 16.1 0.00 0.00 0.00 26 1011.8
20260504175536 16 285 4.8 16.1 0.00 0.00 0.00 24 1012.0
20260504175035 16 229 4.8 16.1 0.00 0.00 0.00 24 1012.0
20260504174550 16 343 3.2 8.0 0.00 0.00 0.00 25 1012.0
20260504174033 16 17 1.6 8.0 0.00 0.00 0.00 27 1012.1
20260504173532 16 193 1.6 16.1 0.00 0.00 0.00 24 1012.2
20260504173040 16 277 3.2 16.1 0.00 0.00 0.00 27 1012.3
20260504172533 16 352 3.2 16.1 0.00 0.00 0.00 26 1012.3
20260504172033 16 236 4.8 9.7 0.00 0.00 0.00 27 1012.4
20260504171549 15 9 1.6 14.5 0.00 0.00 0.00 27 1012.4
20260504171033 15 150 3.2 14.5 0.00 0.00 0.00 26 1012.5
20260504170533 15 347 3.2 11.3 0.00 0.00 0.00 28 1012.5
20260504151035 13 254 1.6 3.2 0.00 0.00 0.00 30 1013.0
20260504150533 13 255 0.0 3.2 0.00 0.00 0.00 30 1013.1
20260504141032 10 236 1.6 3.2 0.00 0.00 0.00 38 1013.4
20260504140533 10 246 0.0 1.6 0.00 0.00 0.00 37 1013.4